Total_Precipitation_Accumulation
2.01 2.25 2.21 2.10 2.11 2.13 2.32 2.60 2.77 2.60 2.37 2.14 1.86 1.65 1.72 1.83 1.87 1.61 1.55 1.73 1.55 1.33 1.25 1.22 1.21 1.23 1.27 1.31 1.36 1.46 1.53 1.62 1.74 1.95 2.30 2.74 3.13 3.53
2.10 2.22 2.24 2.20 2.24 2.14 2.25 2.49 2.73 2.78 2.46 2.06 1.89 1.74 1.72 1.53 1.66 1.47 1.43 1.55 1.42 1.31 1.24 1.18 1.13 1.15 1.17 1.17 1.14 1.14 1.17 1.20 1.24 1.30 1.41 1.59 1.83 2.15
2.13 2.28 2.38 2.54 2.55 2.41 2.39 2.38 2.50 2.67 2.45 2.09 1.93 1.83 1.68 1.51 1.46 1.35 1.26 1.27 1.24 1.33 1.24 1.11 1.00 0.97 1.02 1.04 1.05 1.03 0.99 0.98 1.02 1.05 1.11 1.20 1.28 1.41
2.33 2.51 2.56 2.58 2.53 2.41 2.46 2.45 2.43 2.62 2.51 2.20 2.07 1.93 1.79 1.60 1.50 1.43 1.25 1.18 1.22 1.44 1.36 1.18 1.04 0.99 0.97 0.93 0.89 0.89 0.94 0.96 0.96 0.96 0.98 1.04 1.08 1.13
2.34 2.39 2.39 2.50 2.42 2.39 2.28 2.27 2.29 2.45 2.61 2.38 2.26 2.23 2.06 1.85 1.74 1.58 1.42 1.41 1.18 1.23 1.28 1.19 1.11 1.02 0.95 0.92 0.91 0.90 0.86 0.84 0.84 0.87 0.91 0.97 0.99 1.00
2.22 2.30 2.36 2.37 2.41 2.51 2.38 2.37 2.50 2.62 2.70 2.61 2.49 2.53 2.42 2.18 2.01 1.79 1.61 1.50 1.34 1.11 1.19 1.20 1.17 1.07 0.97 0.90 0.89 0.88 0.88 0.85 0.81 0.82 0.83 0.86 0.94 1.02
2.13 2.10 2.17 2.36 2.43 2.45 2.26 2.37 2.53 2.53 2.51 2.53 2.48 2.59 2.56 2.43 2.11 1.84 1.74 1.71 1.56 1.35 1.28 1.14 1.13 1.11 1.07 1.05 1.02 1.00 0.93 0.92 0.91 0.88 0.87 0.90 0.95 1.07
2.07 1.97 1.88 1.90 1.98 2.10 2.10 2.10 2.20 2.28 2.36 2.39 2.39 2.46 2.48 2.41 2.24 2.04 1.92 1.83 1.71 1.63 1.65 1.56 1.38 1.37 1.24 1.10 1.14 1.09 1.02 0.97 0.95 0.94 0.94 0.93 0.96 1.08
1.72 1.68 1.47 1.39 1.69 1.78 1.93 1.90 1.78 1.78 1.84 2.03 2.14 2.15 2.30 2.37 2.38 2.17 2.10 1.99 1.80 1.77 1.81 1.76 1.64 1.50 1.28 1.21 1.32 1.16 1.09 1.05 1.02 1.02 1.01 0.96 0.91 0.92
1.51 1.47 1.46 1.47 1.54 1.69 1.75 1.69 1.61 1.56 1.57 1.58 1.67 1.89 2.09 2.31 2.36 2.29 2.29 2.15 1.93 1.80 1.79 1.76 1.63 1.53 1.33 1.28 1.32 1.18 1.08 1.04 1.02 1.08 1.17 1.16 1.01 0.94
1.60 1.66 1.68 1.53 1.58 1.56 1.58 1.55 1.51 1.54 1.54 1.53 1.52 1.69 1.88 2.02 2.24 2.26 2.21 2.12 1.89 1.78 1.77 1.70 1.61 1.62 1.52 1.36 1.21 1.15 0.96 0.87 0.83 0.85 1.00 1.25 1.35 1.18
1.86 1.75 1.66 1.49 1.43 1.37 1.38 1.44 1.36 1.37 1.52 1.53 1.48 1.55 1.68 1.82 2.05 2.05 1.98 2.03 1.86 1.71 1.57 1.59 1.57 1.63 1.62 1.39 1.17 1.02 0.91 0.86 0.81 0.80 0.95 1.28 1.45 1.28
1.87 1.78 1.66 1.51 1.34 1.31 1.25 1.25 1.27 1.38 1.49 1.52 1.58 1.65 1.79 1.89 1.91 1.91 1.94 1.88 1.84 1.61 1.39 1.54 1.53 1.48 1.43 1.29 1.14 1.02 0.92 0.85 0.80 0.80 0.88 1.14 1.40 1.35
2.02 1.91 1.81 1.66 1.42 1.34 1.20 1.17 1.21 1.20 1.30 1.41 1.47 1.56 1.68 1.82 1.93 2.03 2.05 1.94 1.79 1.64 1.58 1.60 1.57 1.51 1.44 1.29 1.15 1.02 1.01 0.96 0.91 0.89 0.87 1.01 1.11 1.36
2.09 2.15 1.97 1.78 1.57 1.41 1.36 1.31 1.22 1.14 1.26 1.38 1.35 1.39 1.50 1.68 1.98 2.18 2.26 2.22 1.95 1.65 1.54 1.51 1.47 1.48 1.51 1.34 1.15 1.03 1.01 1.02 0.99 0.97 0.98 0.99 1.06 1.25
2.02 2.07 1.93 1.78 1.57 1.43 1.43 1.33 1.17 1.14 1.24 1.33 1.38 1.44 1.56 1.68 1.83 2.01 2.22 2.27 2.09 1.66 1.51 1.48 1.48 1.54 1.48 1.36 1.27 1.12 1.01 1.02 1.01 1.05 1.13 1.17 1.26 1.35
2.05 2.09 2.03 1.92 1.79 1.64 1.55 1.54 1.51 1.43 1.36 1.36 1.51 1.55 1.58 1.58 1.65 1.80 2.04 2.15 1.99 1.59 1.40 1.43 1.55 1.62 1.60 1.59 1.45 1.22 1.14 1.03 1.02 1.15 1.29 1.27 1.25 1.27
1.80 1.96 2.00 1.91 1.82 1.77 1.74 1.70 1.66 1.57 1.49 1.48 1.53 1.57 1.56 1.56 1.59 1.70 1.82 1.94 1.91 1.72 1.57 1.48 1.60 1.70 1.64 1.52 1.35 1.23 1.15 1.10 1.10 1.24 1.30 1.27 1.18 1.15
1.54 1.72 1.77 1.74 1.73 1.76 1.76 1.69 1.61 1.59 1.62 1.57 1.51 1.56 1.61 1.61 1.65 1.74 1.79 1.86 1.89 1.84 1.73 1.63 1.63 1.67 1.55 1.26 1.07 1.05 1.11 1.13 1.20 1.25 1.25 1.20 1.10 1.06
1.41 1.52 1.55 1.58 1.65 1.72 1.74 1.73 1.65 1.65 1.69 1.67 1.62 1.65 1.74 1.76 1.72 1.72 1.78 1.80 1.86 1.87 1.83 1.67 1.53 1.47 1.40 1.27 1.15 1.00 0.96 1.07 1.19 1.20 1.20 1.23 1.16 1.18
1.38 1.48 1.54 1.56 1.61 1.70 1.73 1.74 1.73 1.75 1.74 1.75 1.74 1.74 1.82 1.89 1.77 1.69 1.74 1.85 1.85 1.86 1.79 1.61 1.50 1.61 1.66 1.68 1.44 1.09 0.99 1.01 1.10 1.20 1.28 1.37 1.34 1.34
1.51 1.51 1.59 1.63 1.63 1.63 1.66 1.67 1.70 1.73 1.73 1.71 1.74 1.80 1.85 1.86 1.76 1.72 1.73 1.81 1.79 1.75 1.76 1.79 1.93 2.02 1.91 1.77 1.47 1.25 1.19 1.14 1.15 1.16 1.15 1.18 1.19 1.16
1.59 1.58 1.59 1.55 1.54 1.58 1.61 1.62 1.67 1.70 1.71 1.72 1.76 1.80 1.80 1.79 1.74 1.74 1.74 1.77 1.83 1.88 1.96 2.05 2.13 2.08 1.88 1.72 1.55 1.44 1.38 1.36 1.32 1.27 1.21 1.13 1.00 0.91